Starlink 34482

operational
NORAD ID: 64782 Int'l Des: 2025-147 Owner: SPXS Country: US Constellation: starlink
LEOCIRCULAR

Über Starlink 34482

Beschreibung wird geladen...

Live-Position

3D-Globus wird geladen...

Nächste Überflüge

Höhenverlauf

Altitude vs Time

uPlot chart will show altitude changes over time

Zweizeiliger Elementsatz

1 64782U 25147AD 26061.57028225 .00000804 00000-0 39308-4 0 9991
2 64782 53.1592 275.6770 0000675 142.3328 217.7720 15.30166609 37709
Epoch: 2. März 2026 • Age: 48 hours

Aktueller Status

Höhe 483.8 km
Geschwindigkeit 7.62 km/s
Subsatellitenpunkt -27.19°S, 84.42°E
Startdatum 8. Juli 2025
Alter 0.6 years
Typ internet

Technische Details

Klassifizierung Payload
Masse 575.00 kg
Trockenmasse 530.00 kg
Gesamtmasse 575.00 kg
Länge 0.30 m
Durchmesser 4.10 m
Spannweite 29.00 m
Form Box + pan
Hersteller SPXS
Bus-Typ Starlink V2MO
Phasenstatus In Orbit
Besitzer/Staat SPXS/US

Große Konstellationen

Loading constellations...